Flag for Israel Weather past 2 weeks in Bnei Brak, Israel

Now
55 °F

Sunny.


Feels Like: 54 °F
Forecast: 53 / 64 °F
Wind: 6 mph from East

Location: Dov Airport

Current Time: Jan 29, 2015 at 8:29:36 AM

Latest Report: Jan 29, 2015 at 7:50 AM


Visibility: 10 mi

Pressure: 29.95 "Hg

Humidity: 67%

Dew point: 45 °F

Location of Bnei BrakLocation

Historic Weather in Bnei Brak — Graph

°F

Bnei Brak temperature yesterday

Maximum temperature yesterday: 66 °F (at 9:50 AM)
Minimum temperature yesterday: 55 °F (at 5:50 AM)
Average temperature yesterday: 60 °F

Past Weeks' High & Low Weather Summary

 TemperatureHumidityPressure
High72 °F (Jan 21, 3:50 PM)94% (Jan 25, 7:50 PM)30.30 "Hg (Jan 25, 7:50 PM)
Low48 °F (Jan 18, 5:50 AM)31% (Jan 24, 9:50 AM)29.86 "Hg (Jan 27, 10:50 PM)
Average59 °F67%30.07 "Hg
* Reported Jan 14 6:50 AM — Jan 29 6:50 AM, Bnei Brak, Weather by CustomWeather, © 2014

Note: Actual official high and low records may vary slightly from our data, if they occured in-between our weather recording intervals... More about our weather records

Advertising

Bnei Brak weather history for previous 24 hours

 ConditionsComfort  
Time TempWeatherWind HumidityBarometerVisibility
6:50 AM
Jan 29
55 °FSunny.6 mph67%29.92 "Hg10 mi
5:50 AM55 °FClear.5 mph67%29.92 "Hg10 mi
10:50 PM
Jan 28
55 °FClear.5 mph77%29.95 "Hg10 mi
9:50 PM57 °FClear.5 mph77%29.95 "Hg10 mi
8:50 PM57 °FClear.3 mph82%29.95 "Hg10 mi
7:50 PM57 °FClear.5 mph82%29.95 "Hg10 mi
6:50 PM57 °FClear.3 mph82%29.95 "Hg10 mi
5:50 PM59 °FClear.2 mph77%29.95 "Hg10 mi
4:50 PM61 °FScattered clouds.5 mph68%29.92 "HgN/A
3:50 PM61 °FBroken clouds.9 mph72%29.92 "HgN/A
2:50 PM63 °FLight rain. Partly sunny.12 mph68%29.89 "HgN/A
1:50 PM64 °FScattered clouds.12 mph64%29.89 "HgN/A
12:50 PM64 °FScattered clouds.12 mph64%29.89 "HgN/A
11:50 AM64 °FScattered clouds.16 mph68%29.92 "HgN/A
10:50 AM66 °FPartly sunny.14 mph60%29.92 "HgN/A
9:50 AM66 °FPartly sunny.13 mph64%29.92 "HgN/A
8:50 AM63 °FPassing clouds.8 mph73%29.92 "HgN/A
Weather by CustomWeather, © 2014

See weather overviewHow to use our weather pages